This is the latest recevied weather packets stored in our database for station/object K4GSL. If no packets are shown the sender has not sent any weather packets the latest 10 day(s).
| Time | Temp. | Humidity | Pressure | Rain* | Wind** | Luminosity | Snow |
|---|---|---|---|---|---|---|---|
| 1778009644 | 16.11° C | 79% | 1020.6 hPa | 0 mm | - | 253 W/m² | - |
| 1778009341 | 16.11° C | 79% | 1020.6 hPa | 0 mm | - | 237 W/m² | - |
| 1778009039 | 16.11° C | 79% | 1020.8 hPa | 0 mm | - | 229 W/m² | - |
| 1778008736 | 15.56° C | 80% | 1020.8 hPa | 0 mm | - | 236 W/m² | - |
| 1778008435 | 15.56° C | 80% | 1020.5 hPa | 0 mm | - | 243 W/m² | - |
| 1778008132 | 15.56° C | 80% | 1020.6 hPa | 0 mm | - | 203 W/m² | - |
| 1778007827 | 15° C | 82% | 1020.5 hPa | 0 mm | - | 188 W/m² | - |
| 1778007522 | 15° C | 81% | 1020.4 hPa | 0 mm | - | 199 W/m² | - |
| 1778007220 | 15.56° C | 80% | 1020.5 hPa | 0 mm | - | 186 W/m² | - |
| 1778006916 | 15.56° C | 81% | 1020.8 hPa | 0 mm | - | 173 W/m² | - |
| 1778006613 | 15.56° C | 80% | 1020.5 hPa | 0 mm | - | 162 W/m² | - |
| 1778006310 | 16.11° C | 78% | 1020.4 hPa | 0 mm | - | 173 W/m² | - |
| 1778006007 | 15.56° C | 78% | 1020.5 hPa | 0 mm | - | 200 W/m² | - |
| 1778005703 | 16.11° C | 77% | 1020.5 hPa | 0 mm | - | 204 W/m² | - |
| 1778005400 | 15.56° C | 79% | 1020.5 hPa | 0 mm | - | 192 W/m² | - |
| 1778005097 | 16.11° C | 78% | 1020.4 hPa | 0 mm | - | 189 W/m² | - |
| 1778004794 | 15.56° C | 79% | 1020.5 hPa | 0 mm | - | 232 W/m² | - |
| 1778004491 | 15° C | 81% | 1020.4 hPa | 0 mm | - | 257 W/m² | - |
| 1778004187 | 15.56° C | 79% | 1020.4 hPa | 0 mm | - | 206 W/m² | - |
| 1778003884 | 15.56° C | 78% | 1020.5 hPa | 0 mm | - | 189 W/m² | - |
| 1778003580 | 15.56° C | 80% | 1020.5 hPa | 0 mm | - | 216 W/m² | - |
| 1778003276 | 15.56° C | 80% | 1020.9 hPa | 0 mm | - | 248 W/m² | - |
| 1778002974 | 15.56° C | 80% | 1020.5 hPa | 0 mm | - | 185 W/m² | - |
| 1778002670 | 15° C | 81% | 1020.5 hPa | 0 mm | - | 188 W/m² | - |
| 1778002367 | 15° C | 82% | 1020.2 hPa | 0 mm | - | 248 W/m² | - |
* Rain latest hour (hover to see other rain measurements)
** Current wind speed in m/s (hover to see current wind gust speed)